Miscellaneous Local Product
Issued by NWS Hastings, NE

Home | Current Version | Previous Version | Graphics & Text | Print | Product List | Glossary On
Versions: 1 2 3 4 5 6 7 8 9 10 11 12 13 14 15 16 17 18 19 20 21 22 23 24 25 26 27 28 29 30 31 32 33 34 35 36 37 38 39 40 41 42 43 44 45 46 47 48 49 50
000
AXUS43 KGID 181902
MISGRI

GID CWA HOURLY WEATHER ROUNDUP
NATIONAL WEATHER SERVICE HASTINGS NE
100 PM CST SUN FEB 18 2018

NOTE: "FAIR" INDICATES FEW OR NO CLOUDS BELOW 12,000 FEET WITH NO
SIGNIFICANT WEATHER AND/OR OBSTRUCTIONS TO VISIBILITY.

...SOUTH CENTRAL NEBRASKA...

CITY           SKY/WX    TMP DP  RH WIND       PRES   REMARKS
GRAND ISLAND   CLOUDY    53  30  41 S26G48    29.56F
KEARNEY        CLOUDY    51  29  42 S30       29.53F
HASTINGS       CLOUDY    53  28  38 S25G37    29.56F
ORD            PTSUNNY   50  30  46 S21G28    29.52F
YORK           CLOUDY    55  32  41 S32G39    29.58F
AURORA         CLOUDY    54  30  40 S28G35    29.56F
LEXINGTON      PTSUNNY   51  31  47 S12       29.53F
HOLDREGE       CLOUDY    52  30  42 S26G35    29.53F
HEBRON         MOSUNNY   59  35  41 S29G39    29.63F

...NEBRASKA PANHANDLE...

CITY           SKY/WX    TMP DP  RH WIND       PRES   REMARKS
CHADRON        PTSUNNY   38  30  73 NE14      29.55R WCI  30
ALLIANCE       MOSUNNY   46  28  49 NE22      29.48F
SCOTTSBLUFF    MOSUNNY   54  28  36 NE17      29.46R
SIDNEY         SUNNY     65  12  12 SW7       29.47F

...WESTERN AND NORTH CENTRAL NEBRASKA...

CITY           SKY/WX    TMP DP  RH WIND       PRES   REMARKS
VALENTINE      CLOUDY    40  28  62 NW23      29.55S WCI  30
AINSWORTH      PTSUNNY   42  31  63 N15       29.54R
ONEILL         CLOUDY    49  30  48 SW15G23   29.54S
BROKEN BOW     PTSUNNY   48  32  53 S14       29.51F
IMPERIAL       MOSUNNY   54  26  34 E3        29.47F
NORTH PLATTE   PTSUNNY   50  31  48 S14       29.50F
MCCOOK         PTSUNNY   52  31  44 SE9       29.51F

...EASTERN NEBRASKA...

CITY           SKY/WX    TMP DP  RH WIND       PRES   REMARKS
NORFOLK        MOSUNNY   45  31  58 S12G21    29.56S
SO SIOUX CITY  CLOUDY    44  31  60 S22G29    29.59F
TEKAMAH        CLOUDY    50  33  52 S29G41    29.62F
COLUMBUS       CLOUDY    49  32  52 S21G31    29.57F
ALBION         CLOUDY    48  31  52 S17       29.55F
OMAHA EPPLEY   PTSUNNY   54  24  31 S38G54    29.64F
OFFUTT AFB     CLOUDY    55  26  33 S26G41    29.65F
MILLARD        CLOUDY    56  27  33 S14G30    29.65F
LINCOLN        MOSUNNY   56  29  35 S28G41    29.64F
NEBRASKA CITY  MOSUNNY   54  28  36 S33G40    29.68F
BEATRICE       CLOUDY    56  29  35 S29G38    29.66F
FALLS CITY     CLOUDY    55  23  28 S25G44    29.76F

...NORTHERN KANSAS...

CITY           SKY/WX    TMP DP  RH WIND       PRES   REMARKS
GOODLAND       CLOUDY    65  14  14 SW22G38   29.48F
HILL CITY      CLOUDY    60  30  32 S22G35    29.55F
NORTON         CLEAR     57  21  24 S22       29.53F
PHILLIPSBURG   SUNNY     59  28  31 S17G29    29.57F
SMITH CENTER   SUNNY     59  30  33 S25G35    29.60F
BELOIT         SUNNY     55  34  44 S28G38    29.65F
HAYS           CLOUDY    63  34  33 SW30G43   29.59F
RUSSELL        MOSUNNY   65  37  35 S35G46    29.61F
CONCORDIA      CLOUDY    55  37  50 S31G38    29.66F
SALINA         MOSUNNY   59  41  51 S30G43    29.70F
TOPEKA         CLOUDY    54  30  40 S18G33    29.83F



USA.gov is the U.S. government's official web portal to all federal, state and local government web resources and services.